Flag Weather past 2 weeks in Amstetten, Lower Austria, Austria

Now
35 °F

Overcast.


Feels Like: 31 °F
Forecast: 30 / 42 °F
Wind: 5 mph from East

Location: Linz / Hoersching-Flughafen

Current Time: Nov 28, 2014 at 12:31:11 AM

Latest Report: Nov 27, 2014 at 11:00 PM


Visibility: 5 mi

Pressure: 29.96 "Hg

Humidity: 83%

Dew point: 30 °F

Location of AmstettenLocation

Historic Weather in Amstetten — Graph

°F

Amstetten temperature yesterday

Maximum temperature yesterday: 41 °F (at 2:00 PM)
Minimum temperature yesterday: 32 °F (at 5:00 AM)
Average temperature yesterday: 36 °F

Past Weeks' High & Low Weather Summary

 TemperatureHumidityPressure
High57 °F (Nov 15, 2:00 PM)100% (Nov 14, 6:00 AM)30.35 "Hg (Nov 14, 6:00 AM)
Low32 °F (Nov 27, 5:00 AM)62% (Nov 16, 12:00 PM)29.44 "Hg (Nov 16, 3:00 AM)
Average43 °F85%30.04 "Hg
* Reported Nov 12 11:00 PM — Nov 27 11:00 PM, Amstetten, Weather by CustomWeather, © 2014

Note: Actual official high and low records may vary slightly from our data, if they occured in-between our weather recording intervals... More about our weather records

Advertising

Amstetten weather history for previous 24 hours

 ConditionsComfort  
Time TempWeatherWind HumidityBarometerVisibility
11:00 PM
Nov 27
35 °FOvercast.5 mph83%29.96 "Hg5 mi
10:00 PM35 °FOvercast.5 mph84%29.96 "Hg5 mi
9:00 PMN/APassing clouds.9 mphN/AN/A2 mi
8:00 PM34 °FPassing clouds.5 mph83%29.95 "Hg6 mi
7:00 PM35 °FPassing clouds.5 mph82%29.94 "Hg6 mi
6:00 PM36 °FPassing clouds.5 mph81%29.93 "Hg6 mi
5:00 PMN/APassing clouds.17 mphN/AN/A17 mi
4:00 PM40 °FScattered clouds.6 mph73%29.91 "Hg6 mi
3:00 PM41 °FPassing clouds.6 mph72%29.90 "Hg6 mi
2:00 PM41 °FScattered clouds.7 mph71%29.90 "Hg6 mi
1:00 PM41 °FScattered clouds.7 mph73%29.92 "Hg6 mi
12:00 PM39 °FScattered clouds.7 mph78%29.94 "Hg5 mi
11:00 AM38 °FPartly sunny.6 mph81%29.96 "Hg4 mi
10:00 AM37 °FOvercast.5 mph84%29.97 "Hg4 mi
9:00 AM35 °FOvercast.N/A89%29.98 "Hg4 mi
8:00 AM33 °FOvercast.N/A91%29.98 "Hg4 mi
7:00 AM32 °FOvercast.N/A93%29.98 "Hg4 mi
6:00 AM32 °FPassing clouds.N/A92%29.99 "Hg4 mi
5:00 AM32 °FPassing clouds.N/A92%30.01 "Hg4 mi
4:00 AM33 °FPassing clouds.N/A89%30.01 "Hg5 mi
3:00 AM33 °FPassing clouds.N/A90%30.02 "Hg6 mi
2:00 AM35 °FOvercast.N/A86%30.03 "Hg6 mi
1:00 AM35 °FOvercast.N/A85%30.04 "Hg6 mi
12:00 AM35 °FOvercast.N/A86%30.05 "Hg6 mi
Weather by CustomWeather, © 2014

See weather overviewHow to use our weather pages